EW9154 Weather Reports


time (UTC)temp
F
wind
direction
speed
knots
gust
knots
rain 1hr
in
rain 24hr
in
rain mn
in
humidity
%
barometer
mb
20260510224327 64 269 0.0 2.6 0.00 0.00 0.00 28 1033.8
20260510223826 64 349 0.0 3.5 0.00 0.00 0.00 28 1033.7
20260510223329 64 355 0.0 3.5 0.00 0.00 0.00 26 1033.7
20260510222759 64 251 0.0 0.9 0.00 0.00 0.00 27 1033.7
20260510222235 64 82 0.0 7.8 0.00 0.00 0.00 26 1033.7
20260510221712 64 346 0.0 7.8 0.00 0.00 0.00 26 1033.6
20260510221211 65 355 0.0 0.0 0.00 0.00 0.00 26 1033.6
20260510220713 65 355 0.0 0.0 0.00 0.00 0.00 25 1033.6
20260510220216 66 269 0.0 0.9 0.00 0.00 0.00 24 1033.7
20260510215920 65 90 0.0 0.9 0.00 0.00 0.00 26 1033.7
20260510215120 65 351 0.0 1.7 0.00 0.00 0.00 25 1033.6
20260510214616 65 0 0.0 1.7 0.00 0.00 0.00 27 1033.6
20260510214053 65 315 0.0 1.7 0.00 0.00 0.00 24 1033.6
20260510213533 65 221 0.0 1.7 0.00 0.00 0.00 25 1033.7
20260510213011 65 284 0.0 1.7 0.00 0.00 0.00 25 1033.7
20260510212507 65 250 0.0 1.7 0.00 0.00 0.00 25 1033.6
20260510212008 65 350 0.0 0.9 0.00 0.00 0.00 26 1033.5
20260510211709 65 262 0.0 0.0 0.00 0.00 0.00 26 1033.5
20260510210937 65 302 0.0 0.9 0.00 0.00 0.00 27 1033.5
20260510210412 64 161 0.0 0.0 0.00 0.00 0.00 29 1033.6
20260510205902 65 254 0.0 0.0 0.00 0.00 0.00 27 1033.5
20260510205636 64 24 0.0 2.6 0.00 0.00 0.00 30 1033.5
20260510204839 65 24 0.0 2.6 0.00 0.00 0.00 26 1033.5
20260510204310 65 210 0.0 0.0 0.00 0.00 0.00 27 1033.6
20260510203809 65 275 0.0 0.0 0.00 0.00 0.00 27 1033.6
20260510203249 65 28 0.0 0.9 0.00 0.00 0.00 29 1033.6
20260510202730 65 202 0.0 1.7 0.00 0.00 0.00 28 1033.7
20260510202457 64 279 0.0 1.7 0.00 0.00 0.00 29 1033.7
20260510201702 65 245 0.0 5.2 0.00 0.00 0.00 30 1033.6
20260510201137 65 344 0.0 5.2 0.00 0.00 0.00 32 1033.6
20260510200638 66 165 0.0 0.9 0.00 0.00 0.00 29 1033.7
20260510200136 65 225 0.0 1.7 0.00 0.00 0.00 29 1033.7
20260510195639 65 297 0.0 1.7 0.00 0.00 0.00 29 1033.8
20260510195112 65 321 0.0 0.9 0.00 0.00 0.00 29 1033.7
20260510194604 66 236 0.0 0.0 0.00 0.00 0.00 30 1033.6
20260510194104 66 302 0.0 1.7 0.00 0.00 0.00 30 1033.6
20260510193536 65 186 0.0 1.7 0.00 0.00 0.00 31 1033.7
20260510193039 64 242 0.0 0.0 0.00 0.00 0.00 30 1033.8
20260510192520 64 307 0.0 5.2 0.00 0.00 0.00 31 1033.7
20260510192019 65 313 0.0 5.2 0.00 0.00 0.00 29 1033.7
20260510191721 65 276 0.0 3.5 0.00 0.00 0.00 30 1033.8
20260510190947 64 317 0.0 3.5 0.00 0.00 0.00 31 1033.8
20260510190423 64 263 0.0 3.5 0.00 0.00 0.00 31 1033.7
20260510185902 64 272 0.0 3.5 0.00 0.00 0.00 31 1033.8
20260510185554 64 348 0.0 3.5 0.00 0.00 0.00 31 1033.8
20260510184755 64 263 0.0 2.6 0.00 0.00 0.00 33 1033.8
20260510184250 64 43 0.0 0.9 0.00 0.00 0.00 34 1033.7
20260510184019 63 5 0.0 1.7 0.00 0.00 0.00 35 1033.8
20260510183246 62 200 0.0 1.7 0.00 0.00 0.00 34 1033.8
20260510182730 62 65 0.0 0.9 0.00 0.00 0.00 39 1033.9
20260510182233 61 59 0.0 2.6 0.00 0.00 0.00 34 1033.9
20260510181935 62 19 0.0 2.6 0.00 0.00 0.00 36 1033.9
20260510181200 63 340 0.0 1.7 0.00 0.00 0.00 35 1033.8
20260510180638 63 245 0.0 7.0 0.00 0.00 0.00 33 1034.0
20260510180111 63 246 0.0 2.6 0.00 0.00 0.00 33 1034.0
20260510175616 63 334 0.0 0.9 0.00 0.00 0.00 36 1033.9
20260510175306 62 177 0.0 0.9 0.00 0.00 0.00 38 1033.9
20260510174532 62 194 0.0 0.9 0.00 0.00 0.00 34 1033.9
20260510174005 62 257 0.0 0.0 0.00 0.00 0.00 35 1033.9
20260510173447 62 318 0.0 0.0 0.00 0.00 0.00 38 1034.0
20260510172951 60 327 0.0 1.7 0.00 0.00 0.00 40 1033.9
20260510172443 60 13 0.0 1.7 0.00 0.00 0.00 39 1033.9
20260510171945 60 247 0.0 0.9 0.00 0.00 0.00 39 1033.9
20260510171416 60 317 0.0 0.9 0.00 0.00 0.00 40 1033.9
20260510170915 60 30 0.0 2.6 0.00 0.00 0.00 38 1033.9
20260510170401 60 39 0.0 2.6 0.00 0.00 0.00 40 1033.9
20260510165905 61 19 0.0 0.9 0.00 0.00 0.00 38 1033.9
20260510165615 60 338 0.0 0.9 0.00 0.00 0.00 39 1033.9
20260510164825 60 252 0.0 1.7 0.00 0.00 0.00 40 1034.0
20260510164259 59 302 0.0 1.7 0.00 0.00 0.00 44 1034.0
20260510164014 59 310 0.0 4.3 0.00 0.00 0.00 41 1034.1
20260510163243 58 355 0.0 4.3 0.00 0.00 0.00 42 1034.0
20260510162740 58 22 0.0 0.9 0.00 0.00 0.00 41 1034.0
20260510162243 58 225 0.0 0.0 0.00 0.00 0.00 39 1034.0
20260510161724 59 240 0.0 0.0 0.00 0.00 0.00 38 1034.0
20260510161223 59 323 0.0 0.0 0.00 0.00 0.00 38 1033.9
20260510160654 59 66 0.0 0.0 0.00 0.00 0.00 40 1033.9
20260510160153 59 5 0.0 0.0 0.00 0.00 0.00 44 1033.8
20260510155627 58 5 0.0 0.0 0.00 0.00 0.00 41 1033.7
20260510155106 58 36 0.0 0.0 0.00 0.00 0.00 40 1033.6
20260510154827 57 9 0.0 5.2 0.00 0.00 0.00 41 1033.7
20260510154041 57 22 0.0 5.2 0.00 0.00 0.00 46 1033.7
20260510153539 56 291 0.0 0.0 0.00 0.00 0.00 45 1033.7
20260510153022 56 16 0.0 0.0 0.00 0.00 0.00 45 1033.6
20260510152521 56 349 0.0 0.9 0.00 0.00 0.00 44 1033.5
20260510152002 56 335 0.0 3.5 0.00 0.00 0.00 44 1033.6
20260510151501 56 337 0.0 3.5 0.00 0.00 0.00 46 1033.5
20260510150946 55 15 0.0 3.5 0.00 0.00 0.00 46 1033.5
20260510150447 54 53 0.0 0.9 0.00 0.00 0.00 47 1033.6
20260510145918 53 13 0.0 0.9 0.00 0.00 0.00 50 1033.6
20260510145417 53 34 0.0 0.9 0.00 0.00 0.00 47 1033.5
20260510144858 53 226 0.0 0.0 0.00 0.00 0.00 49 1033.6
20260510144553 53 226 0.0 0.0 0.00 0.00 0.00 49 1033.6
20260510143825 53 226 0.0 0.0 0.00 0.00 0.00 49 1033.5
20260510143258 52 30 0.0 0.0 0.00 0.00 0.00 52 1033.5
20260510142759 51 12 0.0 0.0 0.00 0.00 0.00 52 1033.5
20260510142238 51 32 0.0 0.0 0.00 0.00 0.00 53 1033.5
20260510141720 51 32 0.0 0.0 0.00 0.00 0.00 51 1033.4
20260510141142 51 31 0.0 0.0 0.00 0.00 0.00 54 1033.5
20260510140916 50 32 0.0 0.0 0.00 0.00 0.00 55 1033.4
20260510140404 49 5 0.0 0.0 0.00 0.00 0.00 56 1033.4
20260510135629 49 5 0.0 0.0 0.00 0.00 0.00 57 1033.3
20260510135111 49 5 0.0 0.0 0.00 0.00 0.00 55 1033.3
20260510134549 49 33 0.0 0.0 0.00 0.00 0.00 56 1033.4
20260510134012 49 36 0.0 0.0 0.00 0.00 0.00 57 1033.4
20260510133514 48 9 0.0 0.0 0.00 0.00 0.00 58 1033.3
20260510133222 48 9 0.0 0.0 0.00 0.00 0.00 59 1033.3
20260510132450 47 9 0.0 0.0 0.00 0.00 0.00 58 1033.3
20260510131938 47 5 0.0 0.0 0.00 0.00 0.00 59 1033.2
20260510131440 47 268 0.0 0.0 0.00 0.00 0.00 59 1033.2
20260510131416 47 267 0.0 0.0 0.00 0.00 0.00 60 1033.1
20260510130410 47 267 0.0 0.0 0.00 0.00 0.00 61 1033.1
20260510125910 46 267 0.0 0.0 0.00 0.00 0.00 63 1033.1
20260510125409 46 267 0.0 0.0 0.00 0.00 0.00 63 1033.0
20260510125404 46 267 0.0 0.0 0.00 0.00 0.00 63 1033.1
20260510124348 46 267 0.0 0.0 0.00 0.00 0.00 63 1033.0
20260510124118 45 267 0.0 0.0 0.00 0.00 0.00 63 1033.0
20260510123347 45 267 0.0 0.0 0.00 0.00 0.00 64 1032.9
20260510122847 45 240 0.0 0.0 0.00 0.00 0.00 64 1032.9
20260510122344 45 240 0.0 0.0 0.00 0.00 0.00 65 1032.8
20260510121840 44 240 0.0 0.0 0.00 0.00 0.00 64 1032.8
20260510121317 44 240 0.0 0.0 0.00 0.00 0.00 64 1032.6
20260510120810 44 240 0.0 0.0 0.00 0.00 0.00 64 1032.5
20260510120247 44 240 0.0 0.0 0.00 0.00 0.00 64 1032.5
20260510115719 44 240 0.0 0.0 0.00 0.00 0.00 63 1032.4
20260510115157 44 240 0.0 0.0 0.00 0.00 0.00 63 1032.2
20260510114909 44 240 0.0 0.0 0.00 0.00 0.00 62 1032.2
20260510114137 43 240 0.0 0.0 0.00 0.00 0.00 62 1032.2
20260510113638 43 240 0.0 0.0 0.00 0.00 0.00 63 1032.1
20260510113137 43 240 0.0 0.0 0.00 0.00 0.00 62 1031.8
20260510112612 43 240 0.0 0.0 0.00 0.00 0.00 62 1031.8
20260510112107 43 240 0.0 0.0 0.00 0.00 0.00 62 1031.7
20260510111604 43 240 0.0 0.0 0.00 0.00 0.00 62 1031.7
20260510111101 43 240 0.0 0.0 0.00 0.00 0.00 62 1031.7
20260510110552 43 240 0.0 0.0 0.00 0.00 0.00 61 1031.7
20260510110050 43 240 0.0 0.0 0.00 0.00 0.00 61 1031.7
20260510105520 43 240 0.0 0.0 0.00 0.00 0.00 61 1031.6
20260510104956 43 240 0.0 0.0 0.00 0.00 0.00 61 1031.4
20260510104430 43 240 0.0 0.0 0.00 0.00 0.00 60 1031.3
20260510103909 43 240 0.0 0.0 0.00 0.00 0.00 60 1031.4
20260510103404 43 240 0.0 0.0 0.00 0.00 0.00 60 1031.3
20260510102835 43 240 0.0 0.0 0.00 0.00 0.00 60 1031.3
20260510102336 43 240 0.0 0.0 0.00 0.00 0.00 60 1031.2
20260510101807 43 240 0.0 0.0 0.00 0.00 0.00 60 1031.2
20260510101306 43 240 0.0 0.0 0.00 0.00 0.00 60 1031.1
20260510100810 43 240 0.0 0.0 0.00 0.00 0.00 60 1030.9
20260510100501 43 240 0.0 0.0 0.00 0.00 0.00 59 1030.9
20260510095725 43 240 0.0 0.0 0.00 0.00 0.00 59 1030.8
20260510095223 43 240 0.0 0.0 0.00 0.00 0.00 59 1030.6
20260510094655 43 240 0.0 0.0 0.00 0.00 0.00 59 1030.6
20260510094154 43 240 0.0 0.0 0.00 0.00 0.00 59 1030.7
20260510093634 43 240 0.0 0.0 0.00 0.00 0.00 59 1030.6
20260510093133 44 240 0.0 0.0 0.00 0.00 0.00 58 1030.6
20260510092630 44 240 0.0 0.0 0.00 0.00 0.00 58 1030.5
20260510092625 44 240 0.0 0.0 0.00 0.00 0.00 58 1030.4
20260510092101 44 240 0.0 0.0 0.00 0.00 0.00 57 1030.5
20260510091034 44 240 0.0 0.0 0.00 0.00 0.00 57 1030.5
20260510090526 44 240 0.0 0.0 0.00 0.00 0.00 57 1030.4
20260510085954 44 240 0.0 0.0 0.00 0.00 0.00 56 1030.4
20260510085459 44 240 0.0 0.0 0.00 0.00 0.00 56 1030.2
20260510084930 44 240 0.0 0.0 0.00 0.00 0.00 56 1030.2
20260510084429 44 240 0.0 0.0 0.00 0.00 0.00 56 1030.2
20260510083902 44 240 0.0 0.0 0.00 0.00 0.00 56 1030.1
20260510083406 44 240 0.0 0.0 0.00 0.00 0.00 56 1030.0
20260510082858 44 240 0.0 0.0 0.00 0.00 0.00 56 1030.0
20260510082359 44 240 0.0 0.0 0.00 0.00 0.00 56 1029.9
20260510081829 44 240 0.0 0.0 0.00 0.00 0.00 56 1029.9
20260510081329 44 240 0.0 0.0 0.00 0.00 0.00 55 1029.8
20260510080809 45 240 0.0 0.0 0.00 0.00 0.00 55 1029.7
20260510080309 45 240 0.0 0.0 0.00 0.00 0.00 55 1029.7
20260510075812 45 240 0.0 0.0 0.00 0.00 0.00 55 1029.6
20260510075247 45 240 0.0 0.0 0.00 0.00 0.00 55 1029.6
20260510075241 45 240 0.0 0.0 0.00 0.00 0.00 55 1029.6
20260510074509 45 240 0.0 0.0 0.00 0.00 0.00 55 1029.6
20260510074005 45 240 0.0 0.0 0.00 0.00 0.00 55 1029.4
20260510073229 45 240 0.0 0.0 0.00 0.00 0.00 55 1029.6
20260510072719 45 240 0.0 0.0 0.00 0.00 0.00 55 1029.6
20260510072218 45 240 0.0 0.0 0.00 0.00 0.00 55 1029.6
20260510071713 46 240 0.0 0.0 0.00 0.00 0.00 55 1029.6
20260510071442 46 240 0.0 0.0 0.00 0.00 0.00 55 1029.6
20260510070715 46 240 0.0 0.0 0.00 0.00 0.00 55 1029.7
20260510070148 46 240 0.0 0.0 0.00 0.00 0.00 55 1029.7
20260510065649 46 240 0.0 0.0 0.00 0.00 0.00 55 1029.6
20260510065355 46 240 0.0 0.0 0.00 0.00 0.00 55 1029.7
20260510064559 46 240 0.0 0.0 0.00 0.00 0.00 54 1029.6
20260510064043 46 240 0.0 0.0 0.00 0.00 0.00 53 1029.6
20260510063542 47 240 0.0 0.0 0.00 0.00 0.00 53 1029.6
20260510063023 47 240 0.0 0.0 0.00 0.00 0.00 53 1029.4
20260510062528 47 240 0.0 0.0 0.00 0.00 0.00 53 1029.4
20260510062232 47 240 0.0 0.0 0.00 0.00 0.00 53 1029.4
20260510061433 47 240 0.0 0.0 0.00 0.00 0.00 53 1029.4
20260510061203 47 240 0.0 0.0 0.00 0.00 0.00 53 1029.4
20260510060427 47 240 0.0 0.0 0.00 0.00 0.00 53 1029.4
20260510055923 47 240 0.0 0.0 0.00 0.00 0.00 52 1029.4
20260510055402 47 240 0.0 0.0 0.00 0.00 0.00 51 1029.6
20260510054900 47 240 0.0 0.0 0.00 0.00 0.00 52 1029.4
20260510054334 47 240 0.0 0.0 0.00 0.00 0.00 51 1029.2
20260510053805 47 240 0.0 0.0 0.00 0.00 0.00 51 1029.2
20260510053304 47 240 0.0 0.0 0.00 0.00 0.00 51 1029.2
20260510052745 47 240 0.0 0.0 0.00 0.00 0.00 51 1029.1
20260510052521 47 240 0.0 0.0 0.00 0.00 0.00 52 1029.1
20260510051721 47 240 0.0 0.0 0.00 0.00 0.00 51 1029.0
20260510051450 47 240 0.0 0.0 0.00 0.00 0.00 51 1029.0
20260510050654 47 240 0.0 0.0 0.00 0.00 0.00 50 1029.0
20260510050125 48 240 0.0 0.0 0.00 0.00 0.00 49 1029.0
20260510045559 48 240 0.0 0.0 0.00 0.00 0.00 49 1029.1
20260510045048 48 240 0.0 0.0 0.00 0.00 0.00 49 1029.1
20260510044522 48 240 0.0 0.0 0.00 0.00 0.00 49 1029.1
20260510044253 48 240 0.0 0.0 0.00 0.00 0.00 49 1029.1
20260510043521 48 240 0.0 0.0 0.00 0.00 0.00 48 1029.1
20260510043020 49 240 0.0 0.0 0.00 0.00 0.00 49 1029.1
20260510042750 49 240 0.0 0.0 0.00 0.00 0.00 47 1029.0
20260510042019 49 240 0.0 0.0 0.00 0.00 0.00 47 1028.9
20260510041517 49 240 0.0 0.0 0.00 0.00 0.00 47 1028.8
20260510041016 49 240 0.0 0.0 0.00 0.00 0.00 47 1028.8
20260510040458 49 240 0.0 0.0 0.00 0.00 0.00 47 1028.8
20260510040003 50 240 0.0 0.0 0.00 0.00 0.00 46 1028.7
20260510035433 50 240 0.0 0.0 0.00 0.00 0.00 46 1028.7
20260510034936 50 240 0.0 0.0 0.00 0.00 0.00 46 1028.6
20260510034638 50 240 0.0 0.0 0.00 0.00 0.00 45 1028.5
20260510033906 50 240 0.0 0.0 0.00 0.00 0.00 45 1028.5
20260510033401 51 240 0.0 0.0 0.00 0.00 0.00 44 1028.4
20260510032900 51 244 0.0 0.0 0.00 0.00 0.00 44 1028.3
20260510032342 51 244 0.0 0.0 0.00 0.00 0.00 43 1028.3
20260510031843 51 244 0.0 0.0 0.00 0.00 0.00 43 1028.2
20260510031317 51 244 0.0 0.0 0.00 0.00 0.00 43 1028.2
20260510030816 51 244 0.0 0.0 0.00 0.00 0.00 43 1028.1
20260510030558 51 244 0.0 0.0 0.00 0.00 0.00 43 1028.0
20260510030016 52 244 0.0 0.0 0.00 0.00 0.00 42 1027.9
20260510025242 52 244 0.0 0.0 0.00 0.00 0.00 42 1027.9
20260510024731 52 211 0.0 0.0 0.00 0.00 0.00 42 1027.9
20260510024229 52 213 0.0 0.0 0.00 0.00 0.00 41 1027.8
20260510023726 52 213 0.0 0.0 0.00 0.00 0.00 41 1027.6
20260510023223 53 213 0.0 0.0 0.00 0.00 0.00 40 1027.5
20260510022720 53 212 0.0 0.0 0.00 0.00 0.00 40 1027.3
20260510022220 53 212 0.0 0.0 0.00 0.00 0.00 40 1027.2
20260510021707 53 212 0.0 0.0 0.00 0.00 0.00 39 1027.0
20260510021434 53 212 0.0 0.0 0.00 0.00 0.00 39 1026.9
20260510020701 53 212 0.0 0.0 0.00 0.00 0.00 38 1026.8
20260510020200 54 212 0.0 0.0 0.00 0.00 0.00 38 1026.7
20260510015655 54 214 0.0 0.0 0.00 0.00 0.00 38 1026.6
20260510015154 54 214 0.0 0.0 0.00 0.00 0.00 38 1026.4
20260510014636 54 214 0.0 0.0 0.00 0.00 0.00 38 1026.3
20260510014141 55 214 0.0 0.0 0.00 0.00 0.00 37 1026.3
20260510013615 55 214 0.0 0.0 0.00 0.00 0.00 36 1026.2
20260510013050 55 214 0.0 0.0 0.00 0.00 0.00 37 1026.1
20260510012537 55 214 0.0 0.0 0.00 0.00 0.00 36 1026.1
20260510012036 56 214 0.0 0.0 0.00 0.00 0.00 36 1026.0
20260510011517 56 213 0.0 0.0 0.00 0.00 0.00 35 1025.9
20260510010940 56 214 0.0 0.0 0.00 0.00 0.00 35 1025.8
20260510010412 56 214 0.0 0.9 0.00 0.00 0.00 34 1025.7
20260510005913 56 213 0.0 0.9 0.00 0.00 0.00 33 1025.6
20260510005353 57 69 0.0 2.6 0.00 0.00 0.00 34 1025.6
20260510005126 57 236 0.0 0.9 0.00 0.00 0.00 33 1025.5
20260510004339 57 248 0.0 2.6 0.00 0.00 0.00 32 1025.4
20260510003838 57 236 0.0 2.6 0.00 0.00 0.00 32 1025.4
20260510003821 58 150 0.0 0.9 0.00 0.00 0.00 31 1025.4
20260510002820 58 320 0.0 0.0 0.00 0.00 0.00 31 1025.3
20260510002253 58 260 0.0 0.9 0.00 0.00 0.00 32 1025.2
20260510001756 58 300 0.0 6.1 0.00 0.00 0.00 32 1025.2
20260510001247 59 270 0.0 6.1 0.00 0.00 0.00 31 1025.1
20260510000750 59 298 0.0 6.1 0.00 0.00 0.00 31 1025.2
20260510000235 59 288 0.0 6.1 0.00 0.00 0.00 30 1025.0
20260510000002 59 232 0.0 4.3 0.00 0.00 0.00 30 1024.9
20260509235215 59 178 0.0 4.3 0.00 0.00 0.00 30 1024.9
20260509235156 59 251 0.0 2.6 0.00 0.00 0.00 30 1024.9
20260509234141 60 243 0.0 3.5 0.00 0.00 0.00 29 1024.8
20260509233602 60 302 0.0 3.5 0.00 0.00 0.00 30 1024.8
20260509233312 60 304 0.0 4.3 0.00 0.00 0.00 30 1024.5
20260509232524 60 232 0.0 4.3 0.00 0.00 0.00 29 1024.5
20260509232023 61 228 0.0 3.5 0.00 0.00 0.00 28 1024.5
20260509231452 62 17 0.0 1.7 0.00 0.00 0.00 28 1024.5
20260509230945 62 5 0.0 1.7 0.00 0.00 0.00 27 1024.4
20260509230443 63 30 0.0 1.7 0.00 0.00 0.00 28 1024.3
20260509225940 63 313 0.0 4.3 0.00 0.00 0.00 28 1024.3
20260509225441 64 315 0.0 4.3 0.00 0.00 0.00 27 1024.2
20260509224939 64 223 0.0 0.0 0.00 0.00 0.00 27 1024.1